Location: Emory University Observatory
(33.7903°N, 84.3267°W)
Time: 16:51:37
(UTC-05:00)

Vanguard 3 - Visible Passes

Search period start: 15 December 2017 00:00
Search period end: 25 December 2017 00:00
Orbit: 509 x 3263 km, 33.3° (Epoch: 14 December)

Date Brightness Start Highest point End Pass type
(mag) Time Alt. Az. Time Alt. Az. Time Alt. Az.
15 Dec 9.3 17:57:50 10° WSW 18:01:14 21° SSW 18:05:49 10° SSE visible
21 Dec 11.6 06:08:18 10° S 06:13:57 13° SSE 06:18:44 10° SE visible
22 Dec 11.0 07:02:13 10° SSW 07:13:18 26° SSE 07:20:49 10° ESE visible
23 Dec 11.4 05:48:32 10° S 05:58:03 18° SSE 06:05:23 10° ESE visible
24 Dec 11.7 04:38:59 10° SSE 04:42:25 11° SE 04:45:37 10° SE visible
24 Dec 10.7 06:44:08 10° SSW 06:57:24 32° SSE 07:06:03 10° E visible
